Regional Weather Roundup
Issued by NWS

Home | Current Version | Previous Version | Text Only | Print | Product List | Glossary On
Versions: 1 2 3 4 5 6 7 8 9 10 11 12 13 14 15 16 17 18 19 20 21 22 23 24 25 26 27 28 29 30 31 32 33 34 35 36 37 38 39 40 41 42 43 44 45 46 47 48 49 50
000
ASPQ40 PGUM 300810
RWRPQ
WEATHER ROUNDUP FOR THE MARIANAS AND MICRONESIA
NATIONAL WEATHER SERVICE TIYAN GU
600 PM CHST SUN AUG 30 2015

GUZ001>004-300900-
MARIANA ISLANDS-

CITY           SKY/WX    TMP DP  RH WIND       PRES   REMARKS
GUAM AIRPORT   PTCLDY    82  77  83 CALM      29.81S HX  91
ANDERSEN AFB   CLEAR     82  75  78 E3        29.81F
ROTA AIRPORT   PTCLDY    82  75  78 VRB3      29.82S
TINIAN AP      PTCLDY    84  75  74 SE3       29.79S HX  92
SAIPAN AP      PTCLDY    84  75  74 SE5       29.80S HX  92

$$

PMZ161-300900-
REPUBLIC OF PALAU-

CITY           SKY/WX    TMP DP  RH WIND       PRES   REMARKS
KOROR AP       PTSUNNY   84  77  79 W12       29.79R HX  94
KOROR WSO      CLOUDY    86  75  70 W12       29.81S HX  95

$$

PMZ171>174-300900-
FEDERATED STATES OF MICRONESIA-

CITY           SKY/WX    TMP DP  RH WIND       PRES   REMARKS
YAP AIRPORT    PTSUNNY   81  77  89 VRB7      29.79S
CHUUK AP       MOCLDY    82  77  83 W9        29.83R HX  91
POHNPEI AP     CLOUDY    82  77  83 W15       29.82R HX  91
POHNPEI WSO    MOCLDY    82  77  83 W7        29.86R HX  91
KOSRAE AP      NOT AVBL

$$

PMZ181-300900-
REPUBLIC OF THE MARSHALL ISLANDS-

CITY           SKY/WX    TMP DP  RH WIND       PRES   REMARKS
KWAJALEIN AP   PTCLDY    84  75  74 NW5       29.80R HX  92
MAJURO AP      NOT AVBL
MAJURO WSO     LGT RAIN  84  79  84 NW12      29.77R HX  96

$$




USA.gov is the U.S. government's official web portal to all federal, state and local government web resources and services.